NOAA 16 DEB, 41281

Orbit data source: Space-Track

NOAA 16 DEB, 41281 is space debris in SSO originally from a launch on Thu, 21 Sep 2000 UTC launched from the Air Force Western Test Range (AFWTR). Debris objects in space refer to the collection of defunct objects orbiting the Earth. Examples of debris include non-operational satellites, rocket bodies, and fragments generated from explosions, collisions, or faulty payload assembly.

Loading next visibility...
Identifier
41281, 2000-055GH
Orbit
SSO
Country
Flag of USUS
Related business
Manufacturer
Unknown
Mission
Spacecraft
Bus & Motor
Unknown
Mass
Unknown
Launch date (UTC)
2000-09-21 (25 years ago)
Launch vehicle
Unknown
Launch site
Air Force Western Test Range (AFWTR)
Object type
Payload
Rocket body
Debris
Shape & HBR
Unknown shape, 0.1 m
Radar Cross Section
Small (<0.1 m²)

Expand to show TLE details & history
Last TLE update: 2 days ago

TLE from 2 days ago
0 NOAA 16 DEB
1 41281U 00055GH  26035.11652789  .00006405  00000-0  26776-2 0  9996
2 41281  98.8100 101.2966 0032690 236.6448 123.1602 14.26156884520492
Epoch: 2026-02-04T02:47Z
TLE epoch observation values (Epoch: 2026-02-04T02:47:48.009Z)
Latitude
0.00003°
Longitude
-74.94117°
Altitude
820.425 km
Speed
7.436 km/s
True Right ascension
06h 45m 11s
True Declination
0° 00' 00"
Sunlit
Object was in full shadow at epoch
Visualization orbit readout
Latitude
Unknown
Longitude
Unknown
Altitude
Unknown
Speed
Unknown
Apparent Right ascension
Unknown
Apparent Declination
Unknown
Sunlit
N/A
Visualization observer readout
Local Sidereal Time
05:03:57
Azimuth
Unknown
Elevation
Unknown
Doppler factor
Unknown
Orbital elements
Apogee altitude
825.232 km
Perigee altitude
778.29 km
Semi-major axis
7,179.898 km
Eccentricity
0.00327
Inclination
98.81°
RAAN
101.2966°
Arg. of periapsis
236.6448°
True anomaly
123.47309°
Mean anomaly
123.1602°
Eccentric anomaly
123.31672°
Mean motion
3.56751 °/min
Orbital period
100.91 mins
BSTAR
0.0026776
Loading maneuver chart data...
Computing Atmospheric mass density...
Loading historical data...
Loading historical data...
Loading historical data...
Loading historical data...
Loading historical data...
Loading historical data...
Loading historical data...

Documentation

Showing up to 5 results
|